Miscellaneous Local Product
Issued by NWS Hastings, NE

Home | Current Version | Previous Version | Text Only | Print | Product List | Glossary On
Versions: 1 2 3 4 5 6 7 8 9 10 11 12 13 14 15 16 17 18 19 20 21 22 23 24 25 26 27 28 29 30 31 32 33 34 35 36 37 38 39 40 41 42 43 44 45 46 47 48 49 50
248
AXUS43 KGID 271902
MISGRI

GID CWA HOURLY WEATHER ROUNDUP
NATIONAL WEATHER SERVICE HASTINGS NE
200 PM CDT WED JUL 27 2016

NOTE: "FAIR" INDICATES FEW OR NO CLOUDS BELOW 12,000 FEET WITH NO
SIGNIFICANT WEATHER AND/OR OBSTRUCTIONS TO VISIBILITY.

...SOUTH CENTRAL NEBRASKA...

CITY           SKY/WX    TMP DP  RH WIND       PRES   REMARKS
GRAND ISLAND   SUNNY     85  62  46 VRB3      30.05F
HASTINGS       SUNNY     83  65  54 VRB3      30.07F
KEARNEY        SUNNY     84  23  10 N6        30.09S
ORD            SUNNY     80  61  52 NW5       30.06S
YORK           SUNNY     82  68  61 NW7       30.03F
AURORA         SUNNY     83  64  51 NW5       30.04F
LEXINGTON      SUNNY     82  68  62 N3        30.07F
HOLDREGE       MOSUNNY   80  66  62 E6        30.08F
HEBRON         MOSUNNY   85  62  45 N5        30.03F

...NEBRASKA PANHANDLE...

CITY           SKY/WX    TMP DP  RH WIND       PRES   REMARKS
CHADRON        SUNNY     81  59  47 NE15      30.11S
ALLIANCE       SUNNY     85  58  39 VRB5      30.11F
SCOTTSBLUFF    SUNNY     84  55  36 CALM      30.13F
SIDNEY         SUNNY     85  57  38 MISG      30.16F

...WESTERN AND NORTH CENTRAL NEBRASKA...

CITY           SKY/WX    TMP DP  RH WIND       PRES   REMARKS
VALENTINE      PTSUNNY   84  57  39 MISG      30.06F
AINSWORTH      MOSUNNY   82  63  52 NE6       30.05F
ONEILL         SUNNY     83  59  44 CALM      30.05F
BROKEN BOW     MOSUNNY   79  68  69 SW3       30.08F
IMPERIAL       SUNNY     83  62  49 E10       30.11F
NORTH PLATTE   SUNNY     83  61  47 E18G24    30.03F
MCCOOK         PTSUNNY   80  69  69 E6        30.07F

...EASTERN NEBRASKA...

CITY           SKY/WX    TMP DP  RH WIND       PRES   REMARKS
NORFOLK        SUNNY     83  63  50 MISG      30.02F
SO SIOUX CITY  MOSUNNY   87  68  52 S3        29.98F HX  90
TEKAMAH        SUNNY     84  65  52 NE7       29.98F
COLUMBUS       MOSUNNY   82  64  54 N7        30.01F
ALBION         SUNNY     80  65  59 W3        30.05S
OMAHA EPPLEY   MOSUNNY   88  67  49 N10       29.97F HX  91
OFFUTT AFB     MOSUNNY   86  67  52 W6        29.97F
MILLARD        SUNNY     84  66  54 CALM      29.98S
LINCOLN        MOSUNNY   87  65  47 NW13      30.00S
NEBRASKA CITY  MOSUNNY   84  72  66 SW8       29.98F
BEATRICE       CLOUDY    86  67  53 SW8       30.00F
FALLS CITY     MOSUNNY   86  72  62 W7        29.98F HX  92

...NORTHERN KANSAS...

CITY           SKY/WX    TMP DP  RH WIND       PRES   REMARKS
GOODLAND       SUNNY     86  62  44 SE12G17   30.11F
HILL CITY      MOSUNNY   89  68  49 NE12G21   30.05F HX  93
NORTON         CLEAR     88  55  33 N10       30.06F
SMITH CENTER     N/A     91  64  40 NE5       30.05S HX  93
BELOIT         SUNNY     88  70  55 CALM      30.01F HX  92
HAYS           SUNNY     86  66  51 SE3       30.03F
RUSSELL        MOSUNNY   89  64  43 CALM      30.01F HX  90
CONCORDIA      CLOUDY    85  71  63 VRB3      30.03S HX  90
SALINA         PTSUNNY   92  69  47 CALM      30.00F HX  97
TOPEKA         MOSUNNY   89  68  49 NE7       29.98F HX  93



USA.gov is the U.S. government's official web portal to all federal, state and local government web resources and services.